TimeEST,TemperatureF,Dew PointF,Humidity,Sea Level PressureIn,VisibilityMPH,Wind Direction,Wind SpeedMPH,Gust SpeedMPH,PrecipitationIn,Events,Conditions,WindDirDegrees,DateUTC
12:53 AM,34.0,30.9,89,29.96,10.0,Calm,Calm,-,N/A,,Partly Cloudy,0,2013-12-02 05:53:00
1:53 AM,35.1,32.0,89,29.95,10.0,SSE,4.6,-,N/A,,Partly Cloudy,160,2013-12-02 06:53:00
2:53 AM,36.0,32.0,86,29.94,10.0,Calm,Calm,-,N/A,,Overcast,0,2013-12-02 07:53:00
3:53 AM,35.1,32.0,89,29.93,10.0,Calm,Calm,-,N/A,,Mostly Cloudy,0,2013-12-02 08:53:00
4:53 AM,33.1,30.9,92,29.92,9.0,Calm,Calm,-,N/A,,Overcast,0,2013-12-02 09:53:00
5:53 AM,32.0,30.0,92,29.91,9.0,Calm,Calm,-,N/A,,Partly Cloudy,0,2013-12-02 10:53:00
6:53 AM,33.1,30.9,92,29.93,8.0,Calm,Calm,-,N/A,,Partly Cloudy,0,2013-12-02 11:53:00
7:53 AM,34.0,32.0,92,29.94,6.0,Calm,Calm,-,N/A,,Scattered Clouds,0,2013-12-02 12:53:00
8:53 AM,37.0,33.1,86,29.93,7.0,Calm,Calm,-,N/A,,Mostly Cloudy,0,2013-12-02 13:53:00
9:53 AM,39.9,34.0,79,29.93,8.0,Calm,Calm,-,N/A,,Partly Cloudy,0,2013-12-02 14:53:00
10:53 AM,43.0,35.1,74,29.91,8.0,Calm,Calm,-,N/A,,Overcast,0,2013-12-02 15:53:00
11:53 AM,46.0,36.0,68,29.88,8.0,Calm,Calm,-,N/A,,Clear,0,2013-12-02 16:53:00
12:53 PM,48.0,37.0,66,29.87,7.0,Calm,Calm,-,N/A,,Overcast,0,2013-12-02 17:53:00
1:53 PM,48.0,37.0,66,29.85,7.0,NNE,3.5,-,N/A,,Mostly Cloudy,30,2013-12-02 18:53:00
2:53 PM,48.0,37.0,66,29.84,6.0,North,3.5,-,N/A,,Haze,10,2013-12-02 19:53:00
3:53 PM,46.9,37.9,71,29.84,5.0,NE,4.6,-,N/A,,Haze,50,2013-12-02 20:53:00
4:53 PM,45.0,37.9,76,29.85,5.0,NE,3.5,-,N/A,,Haze,50,2013-12-02 21:53:00
5:53 PM,39.9,36.0,86,29.86,6.0,Calm,Calm,-,N/A,,Mostly Cloudy,0,2013-12-02 22:53:00
6:53 PM,39.9,36.0,86,29.85,5.0,NE,3.5,-,N/A,,Overcast,40,2013-12-02 23:53:00
7:53 PM,41.0,36.0,82,29.87,5.0,NNE,3.5,-,N/A,,Haze,20,2013-12-03 00:53:00
8:53 PM,41.0,36.0,82,29.86,5.0,Calm,Calm,-,N/A,,Haze,0,2013-12-03 01:53:00
9:53 PM,39.9,36.0,86,29.86,4.0,ENE,3.5,-,0.00,,Overcast,60,2013-12-03 02:53:00
10:53 PM,39.0,36.0,89,29.87,3.0,Calm,Calm,-,0.01,Rain,Light Rain,0,2013-12-03 03:53:00
11:10 PM,39.2,35.6,87,29.85,2.5,NE,3.5,-,0.01,Rain,Light Rain,40,2013-12-03 04:10:00
11:28 PM,39.2,35.6,87,29.85,3.0,Calm,Calm,-,0.01,Rain,Light Rain,0,2013-12-03 04:28:00
11:35 PM,39.2,35.6,87,29.85,2.5,Calm,Calm,-,0.01,Rain,Light Rain,0,2013-12-03 04:35:00
11:46 PM,39.2,35.6,87,29.85,3.0,Calm,Calm,-,0.01,Rain,Light Rain,0,2013-12-03 04:46:00
11:53 PM,39.0,36.0,89,29.86,3.0,Calm,Calm,-,0.01,Rain,Light Rain,0,2013-12-03 04:53:00